Regional Weather Roundup
Issued by NWS

Home | Current Version | Previous Version | Graphics & Text | Print | Product List | Glossary On
Versions: 1 2 3 4 5 6 7 8 9 10 11 12 13 14 15 16 17 18 19 20 21 22 23 24 25 26 27 28 29 30 31 32 33 34 35 36 37 38 39 40 41 42 43 44 45 46 47 48 49 50
000
ASUS43 KFSD 221610
RWRSD

WEATHER ROUNDUP FOR SOUTH DAKOTA
NATIONAL WEATHER SERVICE SIOUX FALLS SD
1100 AM CDT SAT APR 22 2017

NOTE: "FAIR" INDICATES FEW OR NO CLOUDS BELOW 12,000 FEET WITH NO
SIGNIFICANT WEATHER AND/OR OBSTRUCTIONS TO VISIBILITY.


SDZ001>005-009-010-012>017-221700-
NORTHWEST AND NORTH CENTRAL SOUTH DAKOTA

CITY           SKY/WX    TMP DP  RH WIND       PRES   REMARKS
BUFFALO          N/A     56  44  64 W13       30.15F
FAITH            N/A     56  41  57 SW13      30.22F
MOBRIDGE       SUNNY     59  36  42 SW9       30.21F
$$

SDZ012>016-024>037-041>051-057-063-072>074-221700-
SOUTHWEST AND SOUTH CENTRAL SOUTH DAKOTA

CITY           SKY/WX    TMP DP  RH WIND       PRES   REMARKS
RAPID CTY ARPT SUNNY     55  39  54 VRB6      30.25F
PIERRE         SUNNY     55  38  52 SW7       30.26F
CUSTER         MOSUNNY   45  32  60 S5        30.26S
ELLSWORTH AFB  SUNNY     55  40  58 N6        30.25S
PHILIP         SUNNY     56  40  55 SW13      30.26F
PINE RIDGE     SUNNY     53  40  61 VRB5      30.28S
SPEARFISH      FAIR      52  37  58 VRB3      30.25S
WINNER         FAIR      58  37  45 VRB3      30.29F
$$

SDZ004>011-016>023-039-040-221700-
NORTHEAST SOUTH DAKOTA

CITY           SKY/WX    TMP DP  RH WIND       PRES   REMARKS
ABERDEEN       SUNNY     61  38  42 SW10      30.25F
WATERTOWN      SUNNY     58  37  45 VRB6      30.25F
BROOKINGS      SUNNY     57  38  48 VRB7      30.28F
SISSETON         N/A     63  39  41 NW10      30.22F
$$

SDZ017-020-022-023-036>040-048>070-221700-
SOUTHEAST SOUTH DAKOTA

CITY           SKY/WX    TMP DP  RH WIND       PRES   REMARKS
SIOUX FALLS    MOSUNNY   60  38  43 CALM      30.28F
HURON          SUNNY     59  40  49 SW6       30.27F
CHAMBERLAIN    SUNNY     57  42  55 SW3       30.29S
MITCHELL       SUNNY     59  41  51 VRB5      30.29F
YANKTON        SUNNY     57  32  38 CALM      30.29S
$$

ABBREVIATIONS USED IN REMARKS
   TC - TEMPERATURE IN CELSIUS
  WCI - WIND CHILL INDEX
   HX - HEAT INDEX
  VSB - VISIBILITY





USA.gov is the U.S. government's official web portal to all federal, state and local government web resources and services.